Вернуться в каталог

IRIDIUM 47 DEB

АктивенPO
NORAD 40251·DEBRIS·🇺🇸 United States

Запущен Dec 20, 1997 с Vandenberg Space Force Base

Loading…

Ближайшие Пролёты (ближайшие 24 часа)

TLE

СвежийSource: Space-Track

Эпоха: Sep 13, 2026, 04:25 UTC

1 40251U 97082L   26256.18415693  .00004996  00000-0  16329-2 0  9997
2 40251  86.3282 338.8791 0118609 219.0722 140.1865 14.34440027614342

Отслеживайте IRIDIUM 47 DEB в реальном времени с AllMySat

Download on the App Store